This is the latest recevied weather packets stored in our database for station/object KG7DQI-13. If no packets are shown the sender has not sent any weather packets the latest 1 day(s).
| Time | Temp. | Humidity | Pressure | Rain* | Wind** | Luminosity | Snow |
|---|---|---|---|---|---|---|---|
| 1778011898 | 25.56° C | 36% | 911.8 hPa | 0 mm | 1.34 m/s, 68° | 868 W/m² | - |
| 1778010989 | 25.56° C | 36% | 911.9 hPa | 0 mm | 1.34 m/s, 50° | 867 W/m² | - |
| 1778010099 | 25.56° C | 37% | 911.9 hPa | 0 mm | 1.34 m/s, 68° | 863 W/m² | - |
| 1778009160 | 25.56° C | 36% | 911.9 hPa | 0 mm | 0.89 m/s, 76° | 858 W/m² | - |
| 1778008273 | 25° C | 35% | 912 hPa | 0 mm | 0.89 m/s, 72° | 854 W/m² | - |
| 1778007330 | 24.44° C | 37% | 912 hPa | 0 mm | 0.89 m/s, 55° | 840 W/m² | - |
| 1778006419 | 23.89° C | 39% | 912.1 hPa | 0 mm | 0.45 m/s, 36° | 824 W/m² | - |
| 1778005475 | 23.33° C | 40% | 912 hPa | 0 mm | 0.89 m/s, 62° | 805 W/m² | - |
| 1778004544 | 22.22° C | 42% | 912.1 hPa | 0 mm | 0.45 m/s, 31° | 782 W/m² | - |
| 1778003636 | 22.22° C | 42% | 912.1 hPa | 0 mm | 0.45 m/s, 100° | 756 W/m² | - |
| 1778002770 | 22.22° C | 42% | 912.2 hPa | 0 mm | 0.89 m/s, 91° | 726 W/m² | - |
| 1778001892 | 21.11° C | 45% | 912.1 hPa | 0 mm | 0.45 m/s, 159° | 696 W/m² | - |
| 1778000965 | 20.56° C | 47% | 912.1 hPa | 0 mm | 0.45 m/s, 355° | 663 W/m² | - |
| 1778000057 | 20° C | 50% | 912.4 hPa | 0 mm | 0.45 m/s, 23° | 628 W/m² | - |
| 1777999143 | 19.44° C | 51% | 912.3 hPa | 0 mm | 0 m/s | 592 W/m² | - |
| 1777998235 | 18.89° C | 53% | 912.3 hPa | 0 mm | 0 m/s | 552 W/m² | - |
| 1777997364 | 18.33° C | 54% | 912.6 hPa | 0 mm | 0 m/s | 510 W/m² | - |
| 1777996422 | 17.22° C | 57% | 912.7 hPa | 0 mm | 0 m/s | 466 W/m² | - |
| 1777995521 | 16.67° C | 59% | 912.6 hPa | 0 mm | 0 m/s | 422 W/m² | - |
| 1777994615 | 16.11° C | 61% | 912.7 hPa | 0 mm | 0 m/s | 378 W/m² | - |
| 1777993728 | 15° C | 65% | 912.5 hPa | 0 mm | 0 m/s | 330 W/m² | - |
| 1777992853 | 13.33° C | 70% | 912.4 hPa | 0 mm | 0 m/s | 290 W/m² | - |
| 1777991933 | 11.67° C | 76% | 912.4 hPa | 0 mm | 0 m/s | 244 W/m² | - |
| 1777991024 | 8.89° C | 85% | 912.3 hPa | 0 mm | 0 m/s | 192 W/m² | - |
| 1777990117 | 6.11° C | 88% | 912 hPa | 0 mm | 0 m/s | 137 W/m² | - |
* Rain latest hour (hover to see other rain measurements)
** Current wind speed in m/s (hover to see current wind gust speed)